Flag for Slovakia Weather past 2 weeks in Piešťany, Slovakia

Now
57 °F

Fog.


Feels Like: 57 °F
Forecast: 60 / 64 °F
Wind: No wind

Location: Piestany

Current Time: Jul 28, 2015 at 6:23:24 AM

Latest Report: Jul 28, 2015 at 6:00 AM


Visibility: 0 mi

Pressure: 29.83 "Hg

Humidity: 94%

Dew point: 55 °F

Location of PiešťanyLocation

Historic Weather in Piešťany — Graph

°F

Piešťany temperature yesterday

Maximum temperature yesterday: 72 °F (at 5:30 PM)
Minimum temperature yesterday: 52 °F (at 2:00 AM)
Average temperature yesterday: 62 °F

Past Weeks' High & Low Weather Summary

 TemperatureHumidityPressure
High97 °F (Jul 17, 4:00 PM)94% (Jul 14, 2:00 AM)30.15 "Hg (Jul 14, 2:00 AM)
Low52 °F (Jul 27, 2:00 AM)22% (Jul 18, 2:30 PM)29.71 "Hg (Jul 25, 3:00 PM)
Average76 °F55%29.94 "Hg
* Reported Jul 13 5:00 AM — Jul 28 5:00 AM, Piešťany, Weather by CustomWeather, © 2015

Note: Actual official high and low records may vary slightly from our data, if they occured in-between our weather recording intervals... More about our weather records

Advertising

Piešťany weather history for previous 24 hours

 ConditionsComfort  
Time TempWeatherWind HumidityBarometerVisibility
5:00 AM
Tue, Jul 28
55 °FFog.1 mph94%29.83 "Hg0 mi
4:30 AM55 °FFog.No wind94%29.83 "Hg0 mi
4:00 AM55 °FFog.5 mph94%29.83 "Hg0 mi
3:30 AM57 °FFog.5 mph94%29.80 "Hg1 mi
3:00 AM57 °FFog.1 mph94%29.83 "Hg0 mi
2:30 AM57 °FFog.2 mph94%29.83 "Hg0 mi
2:00 AM57 °FFog.2 mph94%29.83 "Hg0 mi
1:30 AM59 °FFog.3 mph94%29.80 "Hg3 mi
1:00 AM59 °FFog.2 mph94%29.80 "Hg2 mi
12:00 AM61 °FOvercast.No wind88%29.80 "HgN/A
11:30 PM
Mon, Jul 27
61 °FPassing clouds.5 mph88%29.80 "HgN/A
11:00 PM61 °FPassing clouds.7 mph88%29.80 "HgN/A
10:30 PM63 °FOvercast.5 mph88%29.80 "HgN/A
10:00 PM63 °FLight rain. Passing clouds.2 mph88%29.80 "HgN/A
9:30 PM63 °FScattered clouds.1 mph83%29.80 "HgN/A
9:00 PM66 °FScattered clouds.2 mph68%29.77 "HgN/A
8:30 PM68 °FScattered clouds.5 mph64%29.77 "HgN/A
8:00 PM70 °FScattered clouds.3 mph60%29.77 "HgN/A
7:30 PM70 °FPassing clouds.6 mph60%29.74 "HgN/A
7:00 PM72 °FPassing clouds.6 mph53%29.74 "HgN/A
6:30 PM70 °FScattered clouds.5 mph57%29.74 "HgN/A
6:00 PM72 °FScattered clouds.6 mph53%29.74 "HgN/A
5:30 PM72 °FScattered clouds.7 mph53%29.74 "HgN/A
5:00 PM70 °FScattered clouds.6 mph57%29.74 "HgN/A
4:30 PM68 °FBroken clouds.6 mph69%29.74 "HgN/A
4:00 PM68 °FLight rain. Broken clouds.5 mph69%29.74 "HgN/A
3:30 PM66 °FLight rain. More clouds than sun.2 mph73%29.77 "HgN/A
3:00 PM68 °FLight rain. More clouds than sun.1 mph69%29.77 "HgN/A
2:30 PM66 °FLight rain. More clouds than sun.6 mph68%29.77 "HgN/A
2:00 PM66 °FLight rain. Mostly cloudy.1 mph68%29.80 "HgN/A
1:30 PM64 °FBroken clouds.1 mph73%29.80 "HgN/A
1:00 PM64 °FLight rain. Broken clouds.7 mph73%29.80 "HgN/A
12:30 PM68 °FBroken clouds.3 mph49%29.77 "HgN/A
12:00 PM70 °FSunny.1 mph50%29.77 "Hg10 mi
11:30 AM70 °FSunny.1 mph50%29.77 "Hg10 mi
11:00 AM68 °FSunny.2 mph56%29.80 "Hg10 mi
10:30 AM64 °FSunny.1 mph64%29.77 "Hg10 mi
10:00 AM63 °FLight rain. Clear.2 mph68%29.77 "HgN/A
9:30 AM63 °FSunny.1 mph64%29.80 "Hg10 mi
9:00 AM61 °FSunny.5 mph68%29.80 "Hg10 mi
8:30 AM61 °FSunny.6 mph72%29.80 "Hg10 mi
8:00 AM61 °FSunny.6 mph68%29.77 "Hg10 mi
7:30 AM57 °FSunny.5 mph77%29.80 "Hg10 mi
7:00 AM57 °FLight rain. Clear.8 mph77%29.80 "HgN/A
6:00 AM57 °FLight rain. Clear.5 mph72%29.80 "HgN/A
Weather by CustomWeather, © 2015

See weather overviewHow to use our weather pages